When you browse on this site, cookies collect data to enhance your experience and personalize the content and advertising you see.
Visit our Privacy Policy to learn more. By continuing to use the site, you agree to this use of cookies and data.
  • In Spain
  • List of Countries
  • For 7 days
  • Water Temperature
  • Weather Map
  • Weather Widgets
  • user-avatar
    Login

    Hourly Weather Sada

    Today, 23 February, Sunday

    Time Temperature Precipitation Wind Pressure Humidity
    00:00 +14°C° 0 mm 1 mps 572 mmHg 69%
    01:00 +14°C° 0 mm 1 mps 571 mmHg 68%
    02:00 +14°C° 0 mm 1 mps 570 mmHg 66%
    03:00 +13°C° 0 mm 1 mps 570 mmHg 65%
    04:00 +13°C° 0 mm 1 mps 570 mmHg 65%
    05:00 +12°C° 0 mm 1 mps 570 mmHg 66%
    06:00 +12°C° 0 mm 1 mps 570 mmHg 66%
    07:00 +13°C° 0 mm 1 mps 571 mmHg 58%
    08:00 +15°C° 0 mm 1 mps 572 mmHg 49%
    09:00 +18°C° 0 mm 1 mps 573 mmHg 41%
    10:00 +18°C° 0 mm 2 mps 573 mmHg 38%
    11:00 +19°C° 0 mm 2 mps 574 mmHg 35%
    12:00 +21°C° 0 mm 3 mps 574 mmHg 32%
    13:00 +21°C° 0 mm 3 mps 573 mmHg 35%
    14:00 +21°C° 0 mm 3 mps 573 mmHg 38%
    15:00 +21°C° 0 mm 3 mps 572 mmHg 40%
    16:00 +19°C° 0 mm 3 mps 572 mmHg 49%
    17:00 +18°C° 0 mm 2 mps 571 mmHg 58%
    18:00 +17°C° 0 mm 2 mps 571 mmHg 66%
    19:00 +16°C° 0 mm 2 mps 571 mmHg 67%
    20:00 +16°C° 0 mm 1 mps 571 mmHg 68%
    21:00 +15°C° 0 mm 1 mps 571 mmHg 70%
    22:00 +15°C° 0 mm 1 mps 571 mmHg 66%
    23:00 +15°C° 0 mm 1 mps 571 mmHg 63%

    Tomorrow, 24 February, Monday

    Time Temperature Precipitation Wind Pressure Humidity
    00:00 +14°C° 0 mm 1 mps 571 mmHg 60%
    01:00 +14°C° 0 mm 1 mps 570 mmHg 60%
    02:00 +12°C° 0 mm 0 mps 569 mmHg 60%
    03:00 +12°C° 0 mm 0 mps 569 mmHg 60%
    04:00 +11°C° 0 mm 0 mps 569 mmHg 57%
    05:00 +12°C° 0 mm 1 mps 568 mmHg 55%
    06:00 +12°C° 0 mm 1 mps 568 mmHg 53%
    07:00 +14°C° 0 mm 1 mps 570 mmHg 45%
    08:00 +16°C° 0 mm 2 mps 571 mmHg 37%
    09:00 +18°C° 0 mm 2 mps 572 mmHg 28%
    10:00 +19°C° 0 mm 3 mps 573 mmHg 28%
    11:00 +20°C° 0 mm 3 mps 573 mmHg 27%
    12:00 +21°C° 0 mm 4 mps 573 mmHg 26%
    13:00 +21°C° 0 mm 4 mps 572 mmHg 29%
    14:00 +21°C° 0 mm 3 mps 572 mmHg 32%
    15:00 +21°C° 0 mm 3 mps 571 mmHg 35%
    16:00 +20°C° 0 mm 3 mps 571 mmHg 42%
    17:00 +19°C° 0 mm 2 mps 570 mmHg 49%
    18:00 +18°C° 0 mm 2 mps 570 mmHg 57%
    19:00 +18°C° 0 mm 1 mps 570 mmHg 59%
    20:00 +18°C° 0 mm 1 mps 570 mmHg 62%
    21:00 +16°C° 0 mm 1 mps 570 mmHg 64%
    22:00 +16°C° 0 mm 1 mps 570 mmHg 60%
    23:00 +15°C° 0 mm 1 mps 570 mmHg 57%

    Day after tomorrow, 25 February, Tuesday

    Time Temperature Precipitation Wind Pressure Humidity
    00:00 +15°C° 0 mm 1 mps 570 mmHg 53%
    01:00 +14°C° 0 mm 1 mps 569 mmHg 49%
    02:00 +13°C° 0 mm 1 mps 568 mmHg 45%
    03:00 +13°C° 0 mm 1 mps 568 mmHg 41%
    04:00 +12°C° 0 mm 1 mps 568 mmHg 41%
    05:00 +12°C° 0 mm 1 mps 568 mmHg 40%
    06:00 +12°C° 0 mm 1 mps 568 mmHg 40%
    07:00 +14°C° 0 mm 2 mps 569 mmHg 38%
    08:00 +15°C° 0 mm 2 mps 570 mmHg 36%
    09:00 +17°C° 0 mm 3 mps 572 mmHg 34%
    10:00 +18°C° 0 mm 4 mps 572 mmHg 33%
    11:00 +19°C° 0 mm 4 mps 572 mmHg 32%
    12:00 +19°C° 0 mm 5 mps 572 mmHg 31%
    13:00 +19°C° 0 mm 5 mps 571 mmHg 32%
    14:00 +19°C° 0 mm 5 mps 571 mmHg 33%
    15:00 +19°C° 0 mm 5 mps 570 mmHg 34%
    16:00 +17°C° 0 mm 5 mps 570 mmHg 37%
    17:00 +17°C° 0 mm 4 mps 570 mmHg 40%
    18:00 +16°C° 0 mm 3 mps 570 mmHg 43%
    19:00 +14°C° 0 mm 3 mps 570 mmHg 48%
    20:00 +15°C° 0 mm 2 mps 570 mmHg 53%
    21:00 +14°C° 0 mm 2 mps 570 mmHg 57%
    22:00 +14°C° 0 mm 2 mps 570 mmHg 58%
    23:00 +13°C° 0 mm 2 mps 569 mmHg 59%

    26 February, Wednesday

    Time Temperature Precipitation Wind Pressure Humidity
    00:00 +13°C° 0 mm 2 mps 569 mmHg 60%
    01:00 +13°C° 0 mm 1 mps 569 mmHg 59%
    02:00 +12°C° 0 mm 1 mps 569 mmHg 58%
    03:00 +12°C° 0 mm 1 mps 568 mmHg 57%
    04:00 +12°C° 0 mm 1 mps 568 mmHg 55%
    05:00 +12°C° 0 mm 1 mps 569 mmHg 53%
    06:00 +12°C° 0 mm 1 mps 569 mmHg 51%
    07:00 +13°C° 0 mm 1 mps 570 mmHg 45%
    08:00 +15°C° 0 mm 1 mps 571 mmHg 39%
    09:00 +16°C° 0 mm 1 mps 572 mmHg 33%
    10:00 +17°C° 0 mm 2 mps 572 mmHg 33%
    11:00 +18°C° 0 mm 2 mps 572 mmHg 33%
    12:00 +20°C° 0 mm 3 mps 573 mmHg 33%
    13:00 +20°C° 0 mm 3 mps 572 mmHg 36%
    14:00 +20°C° 0 mm 4 mps 572 mmHg 40%
    15:00 +20°C° 0 mm 4 mps 571 mmHg 43%
    16:00 +19°C° 0 mm 3 mps 571 mmHg 49%
    17:00 +17°C° 0 mm 3 mps 571 mmHg 56%
    18:00 +16°C° 0 mm 2 mps 571 mmHg 62%
    19:00 +16°C° 0 mm 2 mps 571 mmHg 60%
    20:00 +16°C° 0 mm 2 mps 571 mmHg 59%
    21:00 +15°C° 0 mm 2 mps 571 mmHg 58%
    22:00 +15°C° 0 mm 2 mps 571 mmHg 58%
    23:00 +14°C° 0 mm 2 mps 571 mmHg 57%

    27 February, Thursday

    Time Temperature Precipitation Wind Pressure Humidity
    00:00 +13°C° 0 mm 2 mps 571 mmHg 57%
    01:00 +13°C° 0 mm 2 mps 570 mmHg 58%
    02:00 +13°C° 0 mm 2 mps 570 mmHg 58%
    03:00 +12°C° 0 mm 2 mps 570 mmHg 59%
    04:00 +12°C° 0 mm 2 mps 570 mmHg 58%
    05:00 +10°C° 0 mm 2 mps 570 mmHg 58%
    06:00 +10°C° 0 mm 2 mps 569 mmHg 57%
    07:00 +12°C° 0 mm 2 mps 571 mmHg 53%
    08:00 +14°C° 0 mm 2 mps 572 mmHg 48%
    09:00 +15°C° 0 mm 2 mps 573 mmHg 43%
    10:00 +16°C° 0 mm 2 mps 573 mmHg 41%
    11:00 +18°C° 0 mm 2 mps 573 mmHg 38%
    12:00 +19°C° 0 mm 3 mps 573 mmHg 35%
    13:00 +20°C° 0 mm 3 mps 573 mmHg 36%
    14:00 +20°C° 0 mm 3 mps 573 mmHg 38%
    15:00 +20°C° 0 mm 4 mps 572 mmHg 39%
    16:00 +19°C° 0 mm 3 mps 572 mmHg 44%
    17:00 +18°C° 0 mm 3 mps 572 mmHg 50%
    18:00 +17°C° 0 mm 3 mps 571 mmHg 55%
    19:00 +17°C° 0 mm 2 mps 571 mmHg 55%
    20:00 +16°C° 0 mm 2 mps 571 mmHg 54%
    21:00 +16°C° 0 mm 1 mps 572 mmHg 53%
    22:00 +15°C° 0 mm 1 mps 571 mmHg 52%
    23:00 +14°C° 0 mm 1 mps 571 mmHg 52%

    28 February, Friday

    Time Temperature Precipitation Wind Pressure Humidity
    00:00 +14°C° 0 mm 1 mps 571 mmHg 51%
    01:00 +13°C° 0 mm 1 mps 570 mmHg 51%
    02:00 +13°C° 0 mm 1 mps 570 mmHg 52%
    03:00 +12°C° 0 mm 1 mps 569 mmHg 52%
    04:00 +12°C° 0 mm 1 mps 569 mmHg 51%
    05:00 +12°C° 0 mm 1 mps 569 mmHg 50%
    06:00 +11°C° 0 mm 1 mps 568 mmHg 48%
    07:00 +13°C° 0 mm 1 mps 570 mmHg 43%
    08:00 +15°C° 0 mm 1 mps 571 mmHg 37%
    09:00 +18°C° 0 mm 1 mps 572 mmHg 32%
    10:00 +18°C° 0 mm 2 mps 572 mmHg 31%
    11:00 +19°C° 0 mm 3 mps 573 mmHg 31%
    12:00 +20°C° 0 mm 4 mps 573 mmHg 31%
    13:00 +20°C° 0 mm 4 mps 572 mmHg 33%
    14:00 +20°C° 0 mm 4 mps 572 mmHg 36%
    15:00 +20°C° 0 mm 4 mps 571 mmHg 38%
    16:00 +19°C° 0 mm 4 mps 571 mmHg 43%
    17:00 +18°C° 0 mm 3 mps 570 mmHg 48%
    18:00 +17°C° 0 mm 3 mps 570 mmHg 53%
    19:00 +17°C° 0 mm 2 mps 570 mmHg 57%
    20:00 +16°C° 0 mm 1 mps 570 mmHg 60%
    21:00 +15°C° 0 mm 1 mps 570 mmHg 63%
    22:00 +15°C° 0 mm 1 mps 570 mmHg 64%
    23:00 +14°C° 0 mm 1 mps 569 mmHg 64%
    Show more